CW8738 Weather Reports


Display with metric or nautical units.
time (UTC)temp
F
wind
direction
speed
MPH
gust
MPH
rain 1hr
in
rain 24hr
in
rain mn
in
humidity
%
barometer
mb
20260503035516 58 158 5.0 8.0 0.00 0.00 0.00 52 1020.9
20260503034517 59 68 1.0 5.0 0.00 0.00 0.00 46 1020.5
20260503033516 58 23 4.0 5.0 0.00 0.00 0.00 50 1019.9
20260503032517 58 338 4.0 7.0 0.00 0.00 0.00 51 1019.5
20260503031516 60 23 3.0 7.0 0.00 0.00 0.00 46 1019.2
20260503030517 60 23 5.0 10.0 0.00 0.00 0.00 46 1018.8
20260503025537 59 45 9.0 14.0 0.00 0.00 0.00 47 1018.4
20260503024537 59 23 8.0 15.0 0.00 0.00 0.00 48 1018.1
20260503023517 59 45 8.0 13.0 0.00 0.00 0.00 49 1018.2
20260503022517 59 68 9.0 14.0 0.00 0.00 0.00 48 1018.0
20260503021516 59 45 7.0 12.0 0.00 0.00 0.00 49 1018.2
20260503020516 59 45 7.0 10.0 0.00 0.00 0.00 52 1018.2
20260503015536 58 0 9.0 14.0 0.00 0.00 0.00 54 1018.2
20260503014516 58 338 11.0 16.0 0.00 0.00 0.00 55 1018.3
20260503013537 59 338 9.0 11.0 0.00 0.00 0.00 50 1018.4
20260503012537 59 315 2.0 9.0 0.00 0.00 0.00 50 1019.1
20260503011517 60 293 6.0 11.0 0.00 0.00 0.00 46 1019.1
20260503010517 60 0.0 0.0 0.00 0.00 0.00 46 1018.4
20260503005516 61 293 4.0 8.0 0.00 0.00 0.00 44 1018.2
20260503004517 62 113 2.0 6.0 0.00 0.00 0.00 44 1018.4
20260503003516 62 135 2.0 6.0 0.00 0.00 0.00 47 1018.7
20260503002516 64 135 15.0 21.0 0.00 0.00 0.00 37 1019.1
20260503001517 65 113 12.0 25.0 0.00 0.00 0.00 33 1018.7
20260503000516 65 315 13.0 18.0 0.00 0.00 0.00 34 1018.1
20260502235517 65 315 16.0 22.0 0.00 0.00 0.00 35 1017.5
20260502234516 65 315 22.0 29.0 0.00 0.00 0.00 35 1017.7
20260502233517 65 315 19.0 25.0 0.00 0.00 0.00 34 1018.2
20260502232537 66 338 19.0 25.0 0.00 0.00 0.00 32 1018.3
20260502231516 68 315 16.0 22.0 0.00 0.00 0.00 28 1018.3
20260502230516 69 315 12.0 16.0 0.00 0.00 0.00 25 1018.2
20260502225556 70 293 15.0 23.0 0.00 0.00 0.00 24 1018.8
20260502224516 72 203 8.0 16.0 0.00 0.00 0.00 20 1018.9
20260502223516 72 158 6.0 10.0 0.00 0.00 0.00 19 1018.9
20260502222516 72 180 6.0 11.0 0.00 0.00 0.00 20 1018.8
20260502221516 72 135 12.0 16.0 0.00 0.00 0.00 20 1018.9
20260502220516 71 158 14.0 30.0 0.00 0.00 0.00 20 1019.1
20260502215516 71 180 13.0 33.0 0.00 0.00 0.00 19 1019.4
20260502214516 71 158 13.0 23.0 0.00 0.00 0.00 20 1019.4
20260502213516 71 158 10.0 17.0 0.00 0.00 0.00 20 1019.7
20260502212516 71 180 8.0 26.0 0.00 0.00 0.00 20 1019.8
20260502211516 71 225 11.0 16.0 0.00 0.00 0.00 22 1020.1
20260502210536 71 203 7.0 10.0 0.00 0.00 0.00 22 1020.3
20260502205536 72 158 13.0 19.0 0.00 0.00 0.00 21 1020.3
20260502204516 72 158 12.0 21.0 0.00 0.00 0.00 21 1020.4
20260502203516 72 225 8.0 15.0 0.00 0.00 0.00 21 1020.2
20260502202516 72 158 7.0 17.0 0.00 0.00 0.00 21 1020.8
20260502201516 72 203 10.0 21.0 0.00 0.00 0.00 20 1020.8
20260502200516 73 180 13.0 18.0 0.00 0.00 0.00 19 1021.1
20260502195516 72 248 1.0 6.0 0.00 0.00 0.00 20 1020.5
20260502194516 72 270 5.0 9.0 0.00 0.00 0.00 19 1020.9
20260502193516 72 225 6.0 17.0 0.00 0.00 0.00 19 1020.9
20260502192516 73 203 9.0 14.0 0.00 0.00 0.00 19 1021.4
20260502191516 73 158 12.0 20.0 0.00 0.00 0.00 18 1021.4
20260502190516 73 158 11.0 17.0 0.00 0.00 0.00 18 1021.5
20260502185516 73 180 11.0 15.0 0.00 0.00 0.00 19 1021.9
20260502184556 72 158 13.0 20.0 0.00 0.00 0.00 19 1021.9
20260502183516 71 158 11.0 21.0 0.00 0.00 0.00 20 1022.1
20260502182516 71 158 10.0 16.0 0.00 0.00 0.00 20 1022.1
20260502181516 70 225 6.0 14.0 0.00 0.00 0.00 21 1021.9
20260502180516 69 135 5.0 10.0 0.00 0.00 0.00 21 1022.2
20260502170516 67 90 1.0 5.0 0.00 0.00 0.00 21 1022.2
20260502163516 63 0.0 0.0 0.00 0.00 0.00 24 1021.4
20260502162516 63 0.0 0.0 0.00 0.00 0.00 22 1021.3
20260502161515 62 0.0 0.0 0.00 0.00 0.00 24 1021.4
20260502160516 61 0.0 1.0 0.00 0.00 0.00 26 1021.5
20260502151516 53 0.0 0.0 0.00 0.00 0.00 29 1021.2
20260502150516 52 0.0 0.0 0.00 0.00 0.00 30 1020.9
20260502130516 45 0.0 0.0 0.00 0.00 0.00 33 1019.5
20260502123535 50 135 1.0 3.0 0.00 0.00 0.00 26 1020.2
20260502122536 51 113 3.0 3.0 0.00 0.00 0.00 25 1020.4
20260502121515 50 113 3.0 4.0 0.00 0.00 0.00 27 1020.4
20260502120515 49 113 1.0 2.0 0.00 0.00 0.00 27 1020.2
20260502115515 48 0.0 0.0 0.00 0.00 0.00 27 1020.1
20260502113515 51 0.0 0.0 0.00 0.00 0.00 24 1020.6
20260502112515 51 113 2.0 4.0 0.00 0.00 0.00 25 1020.3
20260502111515 50 113 4.0 5.0 0.00 0.00 0.00 27 1020.2
20260502110516 50 0.0 3.0 0.00 0.00 0.00 25 1020.4
20260502105516 52 0.0 0.0 0.00 0.00 0.00 23 1020.6
20260502104515 53 0.0 0.0 0.00 0.00 0.00 22 1020.5
20260502103515 54 0.0 0.0 0.00 0.00 0.00 22 1020.6
20260502102535 53 0.0 0.0 0.00 0.00 0.00 22 1020.5
20260502101515 51 0.0 0.0 0.00 0.00 0.00 23 1020.2
20260502100515 51 0.0 0.0 0.00 0.00 0.00 24 1020.3
20260502091515 54 0.0 0.0 0.00 0.00 0.00 20 1020.9
20260502090535 55 0.0 0.0 0.00 0.00 0.00 20 1020.9
20260502070517 58 0.0 0.0 0.00 0.00 0.00 17 1021.3
20260502065517 59 0.0 0.0 0.00 0.00 0.00 17 1021.3
20260502064515 62 0.0 0.0 0.00 0.00 0.00 15 1021.6
20260502063517 61 0.0 0.0 0.00 0.00 0.00 15 1021.5
20260502062517 61 0.0 0.0 0.00 0.00 0.00 16 1021.3
20260502061517 61 0.0 0.0 0.00 0.00 0.00 15 1021.6
20260502060517 63 0.0 0.0 0.00 0.00 0.00 15 1021.7
20260502055557 63 0.0 0.0 0.00 0.00 0.00 14 1021.7
20260502054517 63 0.0 0.0 0.00 0.00 0.00 15 1021.7
20260502053517 61 0.0 0.0 0.00 0.00 0.00 16 1021.5
20260502052557 62 0.0 0.0 0.00 0.00 0.00 16 1021.5
20260502051517 62 0.0 0.0 0.00 0.00 0.00 15 1021.4
20260502050517 63 0.0 0.0 0.00 0.00 0.00 15 1021.3
20260502045537 64 0.0 0.0 0.00 0.00 0.00 14 1021.3
20260502044517 63 0.0 0.0 0.00 0.00 0.00 15 1021.0
20260502043517 62 0.0 0.0 0.00 0.00 0.00 16 1020.7
20260502042516 62 0.0 0.0 0.00 0.00 0.00 17 1020.1
20260502041517 63 0.0 0.0 0.00 0.00 0.00 15 1020.3
20260502040516 64 0.0 0.0 0.00 0.00 0.00 14 1020.0